CW1662 Weather Reports


Display with metric or nautical units.
time (UTC)temp
F
wind
direction
speed
MPH
gust
MPH
rain 1hr
in
rain 24hr
in
rain mn
in
humidity
%
barometer
mb
20260902060351 78 322 1.0 4.0 0.00 0.01 0.00 84 1016.0
20260902055839 79 322 3.0 4.0 0.00 0.01 0.00 83 1016.1
20260902055342 79 32 1.0 2.0 0.00 0.01 0.00 83 1015.9
20260902054825 79 312 0.0 2.0 0.00 0.01 0.00 83 1015.9
20260902054332 79 312 1.0 2.0 0.00 0.01 0.00 82 1016.1
20260902053840 79 312 1.0 2.0 0.00 0.01 0.00 81 1016.2
20260902053404 79 312 1.0 3.0 0.00 0.01 0.00 82 1016.2
20260902052848 79 312 0.0 3.0 0.00 0.01 0.00 82 1016.2
20260902052330 80 312 2.0 4.0 0.00 0.01 0.00 80 1016.5
20260902051858 81 312 2.0 4.0 0.00 0.01 0.00 78 1016.3
20260902051342 81 68 0.0 3.0 0.00 0.01 0.00 77 1016.2
20260902050826 81 121 1.0 4.0 0.00 0.01 0.00 77 1016.1
20260902050331 81 114 0.0 4.0 0.00 0.01 0.00 77 1016.1
20260902045835 82 140 1.0 3.0 0.00 0.01 0.00 77 1016.1
20260902045343 82 110 1.0 3.0 0.00 0.01 0.00 76 1016.2
20260902044828 82 76 0.0 3.0 0.00 0.01 0.00 76 1016.2
20260902044352 82 31 0.0 3.0 0.00 0.01 0.00 76 1016.2
20260902043835 82 31 0.0 3.0 0.00 0.01 0.00 76 1016.1
20260902043340 82 63 1.0 5.0 0.00 0.01 0.00 76 1016.1
20260902042825 82 94 2.0 5.0 0.00 0.01 0.00 75 1016.1
20260902042328 82 21 1.0 2.0 0.00 0.01 0.00 76 1016.0
20260902041836 81 269 0.0 1.0 0.00 0.01 0.00 77 1016.0
20260902041340 81 269 0.0 0.0 0.00 0.01 0.00 77 1015.9
20260902040825 81 269 0.0 0.0 0.00 0.01 0.00 77 1015.8
20260902040350 81 269 0.0 0.0 0.00 0.01 0.00 78 1015.7
20260902035852 81 269 0.0 0.0 0.00 0.01 0.00 77 1015.6
20260902035335 81 269 0.0 2.0 0.00 0.01 0.01 77 1015.7
20260902034843 81 269 1.0 2.0 0.00 0.01 0.01 77 1015.6
20260902034348 81 269 0.0 1.0 0.00 0.01 0.01 76 1015.5
20260902033831 81 269 0.0 1.0 0.00 0.01 0.01 76 1015.3
20260902033339 82 269 0.0 0.0 0.00 0.01 0.01 75 1015.5
20260902032904 82 269 0.0 1.0 0.00 0.01 0.01 75 1015.3
20260902032326 82 269 0.0 1.0 0.00 0.01 0.01 74 1015.4
20260902031829 82 269 0.0 3.0 0.00 0.01 0.01 74 1015.3
20260902031336 82 269 0.0 3.0 0.00 0.01 0.01 74 1015.3
20260902030824 83 269 0.0 2.0 0.00 0.01 0.01 73 1015.1
20260902030328 83 269 0.0 3.0 0.00 0.01 0.01 73 1014.9
20260902025833 83 269 1.0 3.0 0.00 0.01 0.01 73 1014.8
20260902025355 83 269 0.0 2.0 0.00 0.01 0.01 72 1014.9
20260902024826 84 269 1.0 2.0 0.00 0.01 0.01 72 1014.7
20260902024331 84 269 1.0 3.0 0.00 0.01 0.01 72 1014.7
20260902023835 83 269 2.0 3.0 0.00 0.01 0.01 72 1014.6
20260902023340 83 269 1.0 2.0 0.00 0.01 0.01 72 1014.4
20260902022844 84 269 1.0 3.0 0.00 0.01 0.01 72 1014.4
20260902022348 84 269 1.0 3.0 0.00 0.01 0.01 72 1014.3
20260902021832 84 269 0.0 3.0 0.00 0.01 0.01 71 1014.3
20260902021356 84 269 1.0 3.0 0.00 0.01 0.01 71 1014.4
20260902020840 84 269 1.0 3.0 0.00 0.01 0.01 70 1014.4
20260902020324 85 269 1.0 3.0 0.00 0.01 0.01 70 1014.4
20260902015829 85 269 1.0 5.0 0.00 0.01 0.01 69 1014.4
20260902015352 86 269 2.0 5.0 0.00 0.01 0.01 69 1014.5
20260902014836 85 266 1.0 3.0 0.00 0.01 0.01 69 1014.5
20260902014328 85 266 0.0 3.0 0.00 0.01 0.01 70 1014.6
20260902013832 85 265 1.0 3.0 0.00 0.01 0.01 70 1014.5
20260902013337 85 266 1.0 3.0 0.00 0.01 0.01 70 1014.6
20260902012841 85 266 1.0 2.0 0.00 0.01 0.01 70 1014.6
20260902012323 85 266 0.0 1.0 0.00 0.01 0.01 70 1014.7
20260902011831 86 265 0.0 3.0 0.00 0.01 0.01 70 1014.6
20260902011336 86 266 1.0 3.0 0.00 0.01 0.01 69 1014.6
20260902010840 86 265 1.0 3.0 0.00 0.01 0.01 69 1014.4
20260902010325 86 266 2.0 4.0 0.00 0.01 0.01 69 1014.4
20260902005830 87 265 3.0 5.0 0.00 0.01 0.01 68 1014.2
20260902005333 87 264 2.0 6.0 0.00 0.01 0.01 68 1013.9
20260902004842 87 248 1.0 6.0 0.00 0.01 0.01 68 1013.6
20260902004326 87 230 1.0 3.0 0.00 0.01 0.01 68 1013.5
20260902003833 87 230 1.0 4.0 0.00 0.01 0.01 67 1013.5
20260902003340 87 257 2.0 6.0 0.00 0.01 0.01 67 1013.5
20260902002828 87 190 2.0 7.0 0.00 0.01 0.01 68 1013.4
20260902002352 87 243 2.0 7.0 0.00 0.01 0.01 69 1013.4
20260902001835 86 263 2.0 4.0 0.00 0.01 0.01 69 1013.3
20260902001343 86 258 1.0 2.0 0.00 0.01 0.01 69 1013.1
20260902000827 87 258 0.0 2.0 0.00 0.01 0.01 69 1013.3
20260902000332 87 258 0.0 4.0 0.00 0.01 0.01 68 1013.3
20260901235837 88 259 0.0 5.0 0.00 0.01 0.01 67 1013.2
20260901235343 88 272 1.0 6.0 0.00 0.01 0.01 67 1013.1
20260901234830 89 277 2.0 7.0 0.00 0.01 0.01 66 1012.9
20260901234334 89 274 3.0 7.0 0.00 0.40 0.01 65 1012.7
20260901233859 89 266 4.0 11.0 0.00 0.40 0.01 65 1012.8
20260901233401 89 261 4.0 11.0 0.00 0.40 0.01 65 1012.8
20260901232828 90 255 4.0 9.0 0.00 0.40 0.01 65 1012.6
20260901232351 90 301 4.0 8.0 0.00 0.40 0.01 64 1012.7
20260901231835 90 284 3.0 8.0 0.00 0.40 0.01 64 1012.6
20260901231338 90 287 4.0 9.0 0.00 0.40 0.01 64 1012.6
20260901230826 91 285 5.0 9.0 0.00 0.40 0.01 63 1012.6
20260901230351 91 267 4.0 7.0 0.00 0.40 0.01 64 1012.6
20260901225834 91 269 4.0 7.0 0.00 0.40 0.01 64 1012.7
20260901225338 91 256 4.0 7.0 0.00 0.40 0.01 63 1012.8
20260901224842 91 279 4.0 7.0 0.00 0.40 0.01 63 1012.7
20260901224330 91 261 4.0 7.0 0.00 0.63 0.01 63 1012.7
20260901223838 91 268 4.0 7.0 0.00 0.63 0.01 64 1012.6
20260901223342 92 271 4.0 8.0 0.00 0.63 0.01 64 1012.6
20260901222827 92 263 5.0 8.0 0.00 0.63 0.01 63 1012.6
20260901222330 92 306 4.0 9.0 0.00 0.63 0.01 63 1012.6
20260901221835 92 244 5.0 9.0 0.00 0.63 0.01 63 1012.7
20260901221339 93 275 4.0 8.0 0.00 0.63 0.01 62 1012.7
20260901220824 93 218 4.0 9.0 0.00 0.63 0.01 64 1012.7
20260901220348 93 269 5.0 9.0 0.00 0.63 0.01 64 1012.6
20260901215832 93 256 4.0 7.0 0.00 0.63 0.01 64 1012.7
20260901215336 93 261 3.0 6.0 0.00 0.63 0.01 62 1012.6
20260901214859 93 265 3.0 7.0 0.00 0.63 0.01 62 1012.6
20260901214345 93 268 3.0 7.0 0.00 0.63 0.01 61 1012.7
20260901213836 94 253 3.0 9.0 0.00 0.63 0.01 61 1012.6
20260901213340 94 253 4.0 9.0 0.00 0.63 0.01 60 1012.8
20260901212827 94 256 1.0 9.0 0.00 0.63 0.01 60 1012.8
20260901212330 94 263 3.0 6.0 0.00 0.63 0.01 62 1012.8
20260901211835 94 261 2.0 6.0 0.00 0.63 0.01 60 1012.8
20260901211339 95 277 1.0 5.0 0.00 0.63 0.01 60 1012.8
20260901210824 95 247 0.0 7.0 0.00 0.63 0.01 59 1012.8
20260901210328 95 268 1.0 8.0 0.00 0.63 0.01 60 1012.8
20260901205833 95 275 3.0 7.0 0.00 0.63 0.01 61 1012.8
20260901205337 95 296 1.0 7.0 0.00 0.63 0.01 58 1012.7
20260901204825 95 263 4.0 10.0 0.00 0.63 0.01 57 1012.8
20260901204330 95 252 5.0 12.0 0.00 0.63 0.01 59 1012.9
20260901203834 94 252 4.0 12.0 0.00 0.63 0.01 57 1012.8
20260901203338 94 277 4.0 9.0 0.00 0.63 0.01 60 1012.8
20260901202826 95 264 4.0 9.0 0.00 0.63 0.01 58 1012.7
20260901202330 94 246 2.0 12.0 0.00 0.63 0.01 58 1012.7
20260901201833 95 261 5.0 12.0 0.00 0.63 0.01 57 1012.7
20260901201341 94 272 7.0 11.0 0.00 0.63 0.01 60 1012.8
20260901200826 94 273 6.0 10.0 0.00 0.63 0.01 60 1012.9
20260901200330 93 281 2.0 9.0 0.00 0.63 0.01 63 1013.0
20260901195835 94 277 3.0 9.0 0.00 0.63 0.01 61 1013.0
20260901195342 94 281 4.0 9.0 0.00 0.63 0.01 62 1013.0
20260901194846 94 269 5.0 11.0 0.00 0.63 0.01 60 1013.0
20260901194332 93 287 4.0 11.0 0.00 0.63 0.01 61 1013.0
20260901193837 93 251 3.0 10.0 0.00 0.63 0.01 61 1013.1
20260901193342 93 269 3.0 10.0 0.00 0.63 0.01 59 1013.1
20260901192825 93 266 3.0 11.0 0.00 0.63 0.01 61 1013.2
20260901192329 93 257 2.0 12.0 0.00 0.63 0.01 62 1013.3
20260901191853 93 263 4.0 12.0 0.00 0.63 0.01 62 1013.3
20260901191357 94 276 7.0 12.0 0.00 0.63 0.01 59 1013.3
20260901190840 94 283 7.0 11.0 0.00 0.63 0.01 61 1013.3
20260901190325 94 269 4.0 7.0 0.00 0.63 0.01 62 1013.5
20260901185829 94 258 4.0 7.0 0.00 0.63 0.01 62 1013.7
20260901185332 94 248 3.0 12.0 0.00 0.63 0.01 63 1013.8
20260901184839 94 251 5.0 12.0 0.00 0.63 0.01 62 1013.9
20260901184327 94 225 6.0 12.0 0.00 0.63 0.01 62 1013.9
20260901183832 94 257 6.0 10.0 0.00 0.63 0.01 64 1013.8
20260901183336 94 264 6.0 10.0 0.00 0.63 0.01 63 1013.9
20260901182900 94 255 7.0 10.0 0.00 0.63 0.01 64 1013.9
20260901182321 93 276 4.0 12.0 0.00 0.63 0.01 62 1014.0
20260901181829 94 262 5.0 12.0 0.00 0.63 0.01 63 1014.0
20260901181334 94 227 3.0 10.0 0.00 0.63 0.01 62 1014.1
20260901180857 94 310 3.0 13.0 0.00 0.63 0.01 65 1014.2
20260901180324 94 284 6.0 13.0 0.00 0.63 0.01 62 1014.3
20260901175847 94 265 4.0 8.0 0.00 0.63 0.01 64 1014.2
20260901175333 93 257 3.0 13.0 0.00 0.63 0.01 64 1014.3
20260901174857 93 236 4.0 13.0 0.00 0.63 0.01 65 1014.3
20260901174401 92 247 4.0 6.0 0.00 0.63 0.01 71 1014.3
20260901173829 92 259 3.0 7.0 0.00 0.63 0.01 69 1014.2
20260901173333 92 279 3.0 9.0 0.00 0.63 0.01 70 1014.1
20260901172838 92 280 3.0 12.0 0.00 0.63 0.01 66 1014.2
20260901172402 92 286 6.0 12.0 0.00 0.63 0.01 67 1014.2
20260901171825 92 238 3.0 6.0 0.00 0.63 0.01 71 1014.2
20260901171330 92 274 2.0 6.0 0.00 0.63 0.01 73 1014.3
20260901170854 92 284 3.0 6.0 0.00 0.63 0.01 73 1014.3
20260901170338 91 230 2.0 6.0 0.00 0.63 0.01 72 1014.2
20260901165842 91 232 2.0 6.0 0.00 0.63 0.01 73 1014.4
20260901165346 91 269 2.0 6.0 0.00 0.63 0.01 71 1014.6
20260901164849 90 225 3.0 6.0 0.00 0.63 0.01 74 1014.6
20260901164333 90 207 3.0 7.0 0.00 0.63 0.01 73 1014.7
20260901163838 90 224 4.0 7.0 0.00 0.63 0.01 75 1014.8
20260901163342 89 237 1.0 4.0 0.00 0.63 0.01 74 1014.8
20260901162831 89 282 2.0 5.0 0.00 0.63 0.01 74 1014.8
20260901162334 89 269 2.0 5.0 0.00 0.63 0.01 76 1015.0
20260901161821 88 265 1.0 5.0 0.00 0.63 0.01 78 1014.9
20260901161328 87 201 2.0 4.0 0.00 0.63 0.01 77 1014.9
20260901160833 87 201 2.0 4.0 0.00 0.63 0.01 78 1015.0
20260901160356 86 231 1.0 3.0 0.00 0.63 0.01 78 1014.9
20260901155822 86 231 1.0 5.0 0.00 0.63 0.01 77 1015.0
20260901155349 86 192 2.0 6.0 0.00 0.63 0.01 76 1015.3
20260901154852 87 192 3.0 6.0 0.00 0.63 0.01 75 1015.4
20260901154336 87 195 2.0 5.0 0.00 0.63 0.01 76 1015.4
20260901153840 88 225 2.0 10.0 0.00 0.63 0.01 75 1015.4
20260901153328 88 267 2.0 10.0 0.00 0.63 0.01 74 1015.3
20260901152833 88 248 2.0 7.0 0.00 0.63 0.01 78 1015.4
20260901152340 88 227 2.0 5.0 0.00 0.63 0.01 75 1015.5
20260901151825 87 271 3.0 6.0 0.00 0.63 0.01 79 1015.5
20260901151328 87 230 1.0 9.0 0.00 0.63 0.01 77 1015.4
20260901150835 87 177 2.0 9.0 0.00 0.63 0.01 78 1015.3
20260901150321 86 205 4.0 7.0 0.00 0.63 0.01 78 1015.4
20260901145829 85 147 4.0 7.0 0.00 0.63 0.01 81 1015.4
20260901145353 85 198 2.0 7.0 0.00 0.63 0.01 81 1015.6
20260901144856 84 207 3.0 7.0 0.00 0.63 0.01 82 1015.6
20260901144339 83 194 2.0 4.0 0.00 0.63 0.01 83 1015.6
20260901143824 83 221 1.0 4.0 0.00 0.63 0.01 83 1015.6
20260901143329 83 196 1.0 5.0 0.00 0.63 0.01 82 1015.6
20260901142833 83 192 1.0 5.0 0.00 0.63 0.01 83 1015.6
20260901142320 83 188 3.0 7.0 0.00 0.63 0.01 83 1015.6
20260901141827 83 194 3.0 7.0 0.00 0.63 0.01 84 1015.6
20260901141335 82 208 2.0 9.0 0.00 0.63 0.01 85 1015.6
20260901140839 82 184 5.0 9.0 0.00 0.63 0.01 85 1015.6
20260901140343 82 186 3.0 6.0 0.00 0.63 0.01 88 1015.6
20260901135830 81 217 2.0 4.0 0.00 0.63 0.01 89 1015.9
20260901135333 80 222 2.0 4.0 0.00 0.63 0.01 90 1015.8
20260901134858 80 196 1.0 4.0 0.00 0.63 0.01 91 1015.8
20260901134340 79 136 1.0 5.0 0.00 0.63 0.01 92 1015.9
20260901133828 79 197 2.0 5.0 0.00 0.63 0.01 92 1015.9
20260901133333 78 189 2.0 5.0 0.00 0.63 0.01 92 1015.9
20260901132837 78 207 1.0 4.0 0.00 0.63 0.01 93 1016.0
20260901132325 79 188 2.0 3.0 0.00 0.63 0.01 94 1015.9
20260901131829 78 188 0.0 3.0 0.00 0.63 0.01 94 1015.9
20260901131354 78 188 0.0 3.0 0.00 0.63 0.01 94 1016.0
20260901130837 78 188 1.0 4.0 0.00 0.63 0.01 94 1016.0
20260901130402 77 188 2.0 5.0 0.00 0.63 0.01 95 1016.0
20260901125825 77 190 3.0 6.0 0.00 0.63 0.01 95 1016.2
20260901125329 77 189 4.0 6.0 0.00 0.63 0.01 96 1016.2
20260901124854 77 177 3.0 5.0 0.00 0.63 0.01 96 1016.2
20260901124337 77 196 1.0 3.0 0.00 0.63 0.01 96 1016.3
20260901123822 76 196 1.0 4.0 0.00 0.63 0.01 96 1016.3
20260901123329 76 196 3.0 5.0 0.00 0.63 0.01 96 1016.4
20260901122834 76 192 3.0 5.0 0.00 0.63 0.01 96 1016.5
20260901122338 76 182 2.0 4.0 0.00 0.63 0.01 96 1016.4
20260901121826 76 184 2.0 4.0 0.00 0.63 0.01 96 1016.4
20260901121350 76 184 1.0 4.0 0.00 0.63 0.01 96 1016.2
20260901120836 76 184 2.0 3.0 0.01 0.63 0.01 96 1016.4
20260901120324 75 184 2.0 4.0 0.01 0.63 0.01 96 1016.3
20260901115829 75 188 2.0 4.0 0.01 0.63 0.01 96 1016.2
20260901115332 75 185 2.0 4.0 0.01 0.63 0.01 96 1016.3
20260901114837 75 185 1.0 2.0 0.01 0.63 0.01 96 1016.2
20260901114341 75 185 0.0 1.0 0.01 0.63 0.01 96 1016.2
20260901113826 75 185 0.0 3.0 0.01 0.63 0.01 96 1016.1
20260901113329 75 185 0.0 3.0 0.01 0.63 0.01 96 1016.2
20260901112836 75 185 1.0 2.0 0.01 0.63 0.01 96 1016.2
20260901112325 75 185 0.0 1.0 0.01 0.63 0.01 96 1016.2
20260901111833 75 185 0.0 3.0 0.01 0.63 0.01 96 1016.0
20260901111338 75 185 1.0 3.0 0.01 0.63 0.01 96 1015.7
20260901110822 75 124 0.0 2.0 0.00 0.62 0.00 96 1015.7
20260901110330 74 124 0.0 0.0 0.00 0.62 0.00 96 1015.8
20260901105834 74 124 0.0 1.0 0.00 0.62 0.00 96 1015.9
20260901105337 74 124 0.0 1.0 0.00 0.62 0.00 96 1015.6
20260901104904 74 124 0.0 2.0 0.00 0.62 0.00 96 1015.7
20260901104328 75 124 0.0 2.0 0.00 0.62 0.00 96 1015.6
20260901103831 75 124 0.0 1.0 0.00 0.62 0.00 96 1015.6
20260901103339 75 124 1.0 1.0 0.00 0.62 0.00 96 1015.6
20260901102848 75 124 0.0 0.0 0.00 0.62 0.00 96 1015.4
20260901102330 75 124 0.0 1.0 0.00 0.62 0.00 96 1015.5
20260901101835 75 124 0.0 1.0 0.00 0.62 0.00 96 1015.5
20260901101339 75 124 0.0 1.0 0.00 0.62 0.00 96 1015.5
20260901100827 75 124 0.0 1.0 0.00 0.62 0.00 96 1015.4
20260901100332 75 124 0.0 1.0 0.00 0.62 0.00 96 1015.5
20260901095836 75 124 0.0 1.0 0.00 0.62 0.00 96 1015.5
20260901095359 75 124 0.0 1.0 0.00 0.62 0.00 96 1015.6
20260901094824 75 124 0.0 1.0 0.00 0.62 0.00 96 1015.5
20260901094332 75 138 0.0 0.0 0.00 0.62 0.00 96 1015.5
20260901093836 75 138 0.0 0.0 0.00 0.62 0.00 96 1015.6
20260901093325 75 138 0.0 0.0 0.00 0.62 0.00 96 1015.7
20260901092830 75 138 0.0 0.0 0.00 0.62 0.00 96 1015.7
20260901092332 75 138 0.0 0.0 0.00 0.62 0.00 96 1015.7
20260901091840 75 138 0.0 0.0 0.00 0.62 0.00 96 1015.6
20260901091404 75 138 0.0 0.0 0.00 0.62 0.00 96 1015.7
20260901090827 75 138 0.0 0.0 0.00 0.62 0.00 96 1015.6
20260901090354 75 138 0.0 0.0 0.00 0.62 0.00 96 1015.7
20260901085841 75 138 0.0 0.0 0.00 0.62 0.00 96 1015.7
20260901085404 76 138 0.0 0.0 0.00 0.62 0.00 96 1015.4
20260901084828 76 138 0.0 0.0 0.00 0.62 0.00 96 1015.5
20260901084331 75 138 0.0 0.0 0.00 0.62 0.00 96 1015.4
20260901083839 75 138 0.0 0.0 0.00 0.62 0.00 96 1015.4
20260901083344 75 138 0.0 0.0 0.00 0.62 0.00 96 1015.5
20260901082832 75 138 0.0 0.0 0.00 0.62 0.00 96 1015.5
20260901082336 76 138 0.0 0.0 0.00 0.62 0.00 96 1015.4
20260901081840 76 138 0.0 0.0 0.00 0.62 0.00 96 1015.6
20260901081325 76 138 0.0 0.0 0.00 0.62 0.00 96 1015.6
20260901080830 76 138 0.0 0.0 0.00 0.62 0.00 96 1015.7
20260901080334 76 138 0.0 0.0 0.00 0.62 0.00 96 1015.7
20260901075839 76 138 0.0 0.0 0.00 0.62 0.00 96 1015.7
20260901075342 76 138 0.0 0.0 0.00 0.62 0.00 96 1015.8
20260901074827 75 138 0.0 0.0 0.00 0.62 0.00 96 1015.9
20260901074331 75 138 0.0 0.0 0.00 0.62 0.00 96 1015.8
20260901073856 75 138 0.0 0.0 0.00 0.62 0.00 96 1015.9
20260901073322 75 138 0.0 0.0 0.00 0.62 0.00 96 1015.7
20260901072829 75 138 0.0 0.0 0.00 0.62 0.00 96 1015.6
20260901072336 75 138 0.0 0.0 0.00 0.62 0.00 96 1015.6
20260901071840 75 138 0.0 0.0 0.00 0.62 0.00 96 1015.4
20260901071325 75 138 0.0 0.0 0.00 0.62 0.00 96 1015.5
20260901070829 75 138 0.0 0.0 0.00 0.62 0.00 96 1015.6
20260901070334 75 138 0.0 0.0 0.00 0.62 0.00 96 1015.7
20260901065858 75 138 0.0 0.0 0.00 0.62 0.00 96 1015.8
20260901065401 75 138 0.0 0.0 0.00 0.62 0.00 96 1015.8
20260901064843 75 138 0.0 0.0 0.00 0.62 0.00 96 1015.8
20260901064330 75 138 0.0 0.0 0.00 0.62 0.00 96 1015.8
20260901063855 75 138 0.0 0.0 0.00 0.62 0.00 96 1015.8
20260901063338 75 138 0.0 0.0 0.00 0.62 0.00 96 1015.8
20260901062843 75 138 0.0 0.0 0.00 0.62 0.00 96 1015.9
20260901062331 75 138 0.0 0.0 0.00 0.62 0.00 96 1016.0
20260901061835 75 138 0.0 0.0 0.00 0.62 0.00 96 1016.1
20260901061338 75 138 0.0 0.0 0.00 0.62 0.00 96 1016.1